timestamp,wind_dir_avg,wind_spd_avg,wind_spd_max_dir,wind_spd_gust,battery_voltage,lat,long
2023-05-20 00:04:00+00:00,213.0,11.39,215.0,13.23,12.97,47.59359,-54.27349
2023-05-20 00:14:00+00:00,217.0,10.89,215.0,12.77,12.41,47.59359,-54.27349
2023-05-20 00:24:00+00:00,217.0,10.9,221.0,12.12,12.41,47.59359,-54.27349
2023-05-20 00:34:00+00:00,216.0,9.74,217.0,10.6,12.41,47.59359,-54.27349
2023-05-20 00:44:00+00:00,216.0,8.8,214.0,9.87,12.41,47.59359,-54.27349
2023-05-20 00:54:00+00:00,225.0,7.12,233.0,8.37,12.41,47.59359,-54.27349
2023-05-20 01:04:00+00:00,226.0,7.0,224.0,8.92,12.41,47.59359,-54.27349
2023-05-20 01:14:01+00:00,230.0,5.97,232.0,6.75,12.33,47.59359,-54.27349
2023-05-20 01:24:01+00:00,227.0,6.5,223.0,7.75,12.33,47.59359,-54.27349
2023-05-20 01:34:01+00:00,231.0,6.16,219.0,7.65,12.33,47.59359,-54.27349
2023-05-20 01:44:01+00:00,230.0,6.73,225.0,7.96,12.33,47.59359,-54.27349
2023-05-20 01:54:01+00:00,225.0,6.97,237.0,7.95,12.33,47.59359,-54.27349
2023-05-20 02:04:01+00:00,216.0,6.1,219.0,7.74,12.33,47.59359,-54.27349
2023-05-20 02:14:00+00:00,207.0,7.73,208.0,8.99,12.33,47.59359,-54.27349
2023-05-20 02:24:00+00:00,215.0,8.33,216.0,9.37,12.33,47.59359,-54.27349
2023-05-20 02:34:00+00:00,210.0,8.88,205.0,9.87,12.33,47.59359,-54.27349
2023-05-20 02:44:00+00:00,211.0,9.38,205.0,10.16,12.33,47.59359,-54.27349
2023-05-20 02:54:00+00:00,213.0,9.91,209.0,11.28,12.33,47.59359,-54.27349
2023-05-20 03:04:00+00:00,216.0,9.7,220.0,10.86,12.33,47.59359,-54.27349
2023-05-20 03:14:00+00:00,217.0,9.58,222.0,10.86,12.25,47.59359,-54.27349
2023-05-20 03:24:00+00:00,216.0,9.74,217.0,11.17,12.25,47.59359,-54.27349
2023-05-20 03:34:00+00:00,218.0,9.63,215.0,11.0,12.25,47.59359,-54.27349
2023-05-20 03:44:00+00:00,216.0,10.31,219.0,10.99,12.25,47.59359,-54.27349
2023-05-20 03:54:00+00:00,216.0,9.02,218.0,10.4,12.25,47.59359,-54.27349
2023-05-20 04:04:00+00:00,217.0,8.88,217.0,10.22,12.25,47.59359,-54.27349
2023-05-20 04:14:00+00:00,216.0,8.72,216.0,9.86,12.25,47.59359,-54.27349
2023-05-20 04:24:00+00:00,215.0,7.94,212.0,8.94,12.25,47.59359,-54.27349
2023-05-20 04:34:00+00:00,211.0,6.7,207.0,8.07,12.25,47.59359,-54.27349
2023-05-20 04:44:00+00:00,214.0,7.46,214.0,8.34,12.25,47.59359,-54.27349
2023-05-20 04:54:00+00:00,216.0,7.41,216.0,8.5,12.25,47.59359,-54.27349
2023-05-20 05:04:00+00:00,218.0,7.46,228.0,8.52,12.25,47.59359,-54.27349
2023-05-20 05:14:01+00:00,216.0,8.38,217.0,9.36,12.25,47.59359,-54.27349
2023-05-20 05:24:01+00:00,218.0,8.43,218.0,10.26,12.25,47.59359,-54.27349
2023-05-20 05:34:01+00:00,216.0,9.14,217.0,10.73,12.25,47.59359,-54.27349
2023-05-20 05:44:01+00:00,218.0,9.15,216.0,10.87,12.25,47.59359,-54.27349
2023-05-20 05:54:01+00:00,217.0,9.34,218.0,10.45,12.25,47.59359,-54.27349
2023-05-20 06:04:01+00:00,221.0,8.48,219.0,9.5,12.25,47.59359,-54.27349
2023-05-20 06:14:01+00:00,223.0,8.11,222.0,9.93,12.17,47.59359,-54.27349
2023-05-20 06:24:01+00:00,219.0,7.84,221.0,9.12,12.17,47.59359,-54.27349
2023-05-20 06:34:01+00:00,216.0,8.33,214.0,9.36,12.17,47.59359,-54.27349
2023-05-20 06:44:01+00:00,219.0,7.49,222.0,8.44,12.17,47.59359,-54.27349
2023-05-20 06:54:01+00:00,219.0,6.97,221.0,8.75,12.17,47.59359,-54.27349
2023-05-20 07:04:01+00:00,217.0,7.94,216.0,8.84,12.17,47.59359,-54.27349
2023-05-20 07:14:00+00:00,225.0,9.18,226.0,10.47,12.17,47.59359,-54.27349
2023-05-20 07:24:00+00:00,217.0,8.78,216.0,9.95,12.17,47.59359,-54.27349
2023-05-20 07:34:00+00:00,217.0,9.96,213.0,11.33,12.17,47.59359,-54.27349
2023-05-20 07:44:00+00:00,216.0,9.61,225.0,11.5,12.17,47.59359,-54.27349
2023-05-20 07:54:00+00:00,215.0,10.59,217.0,11.79,12.17,47.59359,-54.27349
2023-05-20 08:04:00+00:00,214.0,10.98,215.0,12.95,12.17,47.59359,-54.27349
2023-05-20 08:14:00+00:00,215.0,10.27,214.0,11.5,12.17,47.59359,-54.27349
2023-05-20 08:24:00+00:00,214.0,11.42,209.0,12.66,12.17,47.59359,-54.27349
2023-05-20 08:34:00+00:00,214.0,11.35,217.0,12.98,12.17,47.59359,-54.27349
2023-05-20 08:44:00+00:00,214.0,11.14,216.0,12.24,12.17,47.59359,-54.27349
2023-05-20 08:54:00+00:00,214.0,10.27,215.0,11.43,12.17,47.59359,-54.27349
2023-05-20 09:04:00+00:00,216.0,10.6,216.0,12.07,12.17,47.59359,-54.27349
2023-05-20 09:14:00+00:00,215.0,10.36,216.0,11.33,12.41,47.59359,-54.27349
2023-05-20 09:24:00+00:00,216.0,10.2,216.0,11.38,12.41,47.59359,-54.27349
2023-05-20 09:34:00+00:00,215.0,9.95,211.0,10.93,12.41,47.59359,-54.27349
2023-05-20 09:44:00+00:00,213.0,9.48,208.0,10.89,12.41,47.59359,-54.27349
2023-05-20 09:54:00+00:00,209.0,9.38,209.0,10.53,12.41,47.59359,-54.27349
2023-05-20 10:04:00+00:00,208.0,9.96,209.0,11.76,12.41,47.59359,-54.27349
2023-05-20 10:14:01+00:00,211.0,10.09,213.0,11.75,13.53,47.59359,-54.27349
2023-05-20 10:24:01+00:00,213.0,9.3,217.0,10.76,13.53,47.59359,-54.27349
2023-05-20 10:34:01+00:00,215.0,10.43,212.0,12.26,13.53,47.59359,-54.27349
2023-05-20 10:44:01+00:00,218.0,10.13,218.0,11.2,13.53,47.59359,-54.27349
2023-05-20 10:54:01+00:00,215.0,11.51,216.0,13.26,13.53,47.59359,-54.27349
2023-05-20 11:04:01+00:00,216.0,11.12,217.0,12.52,13.53,47.59359,-54.27349
2023-05-20 11:14:01+00:00,213.0,11.31,215.0,12.65,13.44,47.59359,-54.27349
2023-05-20 11:24:01+00:00,212.0,11.35,217.0,12.36,13.44,47.59359,-54.27349
2023-05-20 11:34:01+00:00,213.0,11.25,212.0,12.74,13.44,47.59359,-54.27349
2023-05-20 11:44:01+00:00,212.0,11.44,214.0,12.6,13.44,47.59359,-54.27349
2023-05-20 11:54:01+00:00,211.0,11.24,215.0,12.9,13.44,47.59359,-54.27349
2023-05-20 12:04:01+00:00,212.0,12.69,208.0,14.95,13.44,47.59359,-54.27349
2023-05-20 12:14:00+00:00,212.0,12.75,207.0,15.83,13.92,47.59359,-54.27349
2023-05-20 12:24:00+00:00,213.0,12.47,212.0,14.45,13.92,47.59359,-54.27349
2023-05-20 12:34:00+00:00,210.0,11.78,213.0,13.31,13.92,47.59359,-54.27349
2023-05-20 12:44:00+00:00,211.0,11.87,205.0,14.14,13.92,47.59359,-54.27349
2023-05-20 12:54:00+00:00,207.0,11.96,207.0,14.31,13.92,47.59359,-54.27349
2023-05-20 13:04:00+00:00,203.0,12.03,206.0,13.38,13.92,47.59359,-54.27349
2023-05-20 13:14:00+00:00,200.0,10.73,202.0,12.22,14.32,47.59359,-54.27349
2023-05-20 13:24:00+00:00,199.0,11.32,204.0,13.21,14.32,47.59359,-54.27349
2023-05-20 13:34:00+00:00,200.0,12.18,202.0,14.3,14.32,47.59359,-54.27349
2023-05-20 13:44:00+00:00,203.0,11.27,207.0,13.55,14.32,47.59359,-54.27349
2023-05-20 13:54:00+00:00,205.0,10.54,199.0,12.17,14.32,47.59359,-54.27349
2023-05-20 14:04:00+00:00,206.0,11.61,206.0,13.5,14.32,47.59359,-54.27349
2023-05-20 14:14:01+00:00,207.0,11.95,208.0,13.53,14.24,47.59359,-54.27349
2023-05-20 14:24:01+00:00,207.0,12.47,204.0,14.49,14.24,47.59359,-54.27349
2023-05-20 14:34:01+00:00,212.0,12.81,215.0,14.87,14.24,47.59359,-54.27349
2023-05-20 14:44:01+00:00,211.0,13.23,213.0,15.07,14.24,47.59359,-54.27349
2023-05-20 14:54:01+00:00,212.0,13.48,210.0,15.99,14.24,47.59359,-54.27349
2023-05-20 15:04:01+00:00,212.0,14.42,211.0,16.83,14.24,47.59359,-54.27349
2023-05-20 15:14:00+00:00,212.0,14.13,207.0,15.56,13.92,47.59359,-54.27349
2023-05-20 15:24:00+00:00,210.0,13.6,209.0,16.11,13.92,47.59359,-54.27349
2023-05-20 15:34:00+00:00,207.0,14.2,211.0,16.72,13.92,47.59359,-54.27349
2023-05-20 15:44:00+00:00,210.0,14.49,215.0,16.76,13.92,47.59359,-54.27349
2023-05-20 15:54:00+00:00,213.0,14.24,212.0,16.14,13.92,47.59359,-54.27349
2023-05-20 16:04:00+00:00,211.0,16.29,217.0,18.45,13.92,47.59359,-54.27349
2023-05-20 16:14:00+00:00,216.0,14.2,214.0,17.34,14.4,47.59359,-54.27349
2023-05-20 16:24:00+00:00,214.0,13.32,215.0,15.74,14.4,47.59359,-54.27349
2023-05-20 16:34:00+00:00,212.0,15.41,215.0,18.03,14.4,47.59359,-54.27349
2023-05-20 16:44:00+00:00,212.0,15.5,213.0,17.72,14.4,47.59359,-54.27349
2023-05-20 16:54:00+00:00,213.0,13.67,210.0,16.29,14.4,47.59359,-54.27349
2023-05-20 17:04:00+00:00,212.0,14.53,211.0,16.38,14.4,47.59359,-54.27349
2023-05-20 17:14:00+00:00,212.0,13.63,209.0,15.66,13.6,47.59359,-54.27349
2023-05-20 17:24:00+00:00,211.0,14.06,211.0,15.69,13.6,47.59359,-54.27349
2023-05-20 17:34:00+00:00,210.0,13.34,204.0,14.84,13.6,47.59359,-54.27349
2023-05-20 17:44:00+00:00,211.0,14.75,206.0,16.39,13.6,47.59359,-54.27349
2023-05-20 17:54:00+00:00,215.0,14.18,220.0,16.69,13.6,47.59359,-54.27349
2023-05-20 18:04:00+00:00,214.0,13.29,213.0,16.34,13.6,47.59359,-54.27349
2023-05-20 18:14:00+00:00,213.0,14.72,210.0,16.58,13.68,47.59359,-54.27349
2023-05-20 18:24:00+00:00,212.0,13.89,218.0,16.24,13.68,47.59359,-54.27349
2023-05-20 18:34:00+00:00,215.0,13.28,222.0,15.68,13.68,47.59359,-54.27349
2023-05-20 18:44:00+00:00,210.0,13.73,210.0,15.62,13.68,47.59359,-54.27349
2023-05-20 18:54:00+00:00,209.0,13.77,207.0,15.82,13.68,47.59359,-54.27349
2023-05-20 19:04:00+00:00,210.0,13.68,211.0,15.55,13.68,47.59359,-54.27349
2023-05-20 19:14:00+00:00,211.0,13.82,212.0,15.4,13.6,47.59359,-54.27349
2023-05-20 19:24:00+00:00,213.0,13.76,217.0,16.61,13.6,47.59359,-54.27349
2023-05-20 19:34:00+00:00,212.0,15.05,215.0,17.9,13.6,47.59359,-54.27349
2023-05-20 19:44:00+00:00,211.0,14.16,212.0,16.4,13.6,47.59359,-54.27349
2023-05-20 19:54:00+00:00,212.0,12.71,216.0,14.34,13.6,47.59359,-54.27349
2023-05-20 20:04:00+00:00,210.0,12.92,205.0,15.22,13.6,47.59359,-54.27349
2023-05-20 20:14:00+00:00,214.0,12.86,215.0,14.8,13.68,47.59359,-54.27349
2023-05-20 20:24:00+00:00,212.0,13.37,212.0,15.12,13.68,47.59359,-54.27349
2023-05-20 20:34:00+00:00,214.0,12.02,214.0,14.6,13.68,47.59359,-54.27349
2023-05-20 20:44:00+00:00,214.0,10.46,213.0,11.97,13.68,47.59359,-54.27349
2023-05-20 20:54:00+00:00,207.0,11.49,212.0,13.22,13.68,47.59359,-54.27349
2023-05-20 21:04:00+00:00,208.0,10.94,207.0,11.91,13.68,47.59359,-54.27349
2023-05-20 21:14:00+00:00,205.0,10.1,212.0,11.95,13.68,47.59359,-54.27349
2023-05-20 21:24:00+00:00,204.0,11.16,202.0,12.36,13.68,47.59359,-54.27349
2023-05-20 21:34:00+00:00,201.0,11.58,203.0,13.28,13.68,47.59359,-54.27349
2023-05-20 21:44:00+00:00,203.0,11.43,203.0,12.61,13.68,47.59359,-54.27349
2023-05-20 21:54:00+00:00,207.0,11.11,205.0,12.57,13.68,47.59359,-54.27349
2023-05-20 22:04:00+00:00,208.0,11.87,205.0,13.19,13.68,47.59359,-54.27349
2023-05-20 22:14:00+00:00,207.0,11.09,200.0,15.44,13.29,47.59359,-54.27349
2023-05-20 22:24:00+00:00,207.0,11.89,207.0,13.12,13.29,47.59359,-54.27349
2023-05-20 22:34:00+00:00,209.0,11.77,213.0,13.34,13.29,47.59359,-54.27349
2023-05-20 22:44:00+00:00,214.0,11.92,213.0,13.05,13.29,47.59359,-54.27349
2023-05-20 22:54:00+00:00,213.0,11.28,213.0,12.41,13.29,47.59359,-54.27349
2023-05-20 23:04:00+00:00,208.0,9.75,217.0,11.08,13.29,47.59359,-54.27349
2023-05-20 23:14:00+00:00,211.0,9.76,216.0,11.7,12.89,47.59359,-54.27349
2023-05-20 23:24:00+00:00,213.0,9.57,218.0,11.43,12.89,47.59359,-54.27349
2023-05-20 23:34:00+00:00,207.0,9.37,213.0,10.48,12.89,47.59359,-54.27349
2023-05-20 23:44:00+00:00,205.0,8.39,207.0,10.03,12.89,47.59359,-54.27349
2023-05-20 23:54:00+00:00,196.0,7.65,199.0,8.75,12.89,47.59359,-54.27349
